1487084400.51,35075,13.44,74584.8,-0.95,-33.67,-33.67,0,*68
1487084401.78,35076,13.44,74584.8,-0.93,-33.61,-33.61,0,*6D
1487084403.05,35077,13.44,74590.0,-0.93,-33.49,-33.61,0,*66
1487084404.3,35078,13.44,74594.3,-0.93,-33.67,-33.77,0,*62
1487084405.53,35079,13.44,74592.5,-0.93,-33.83,-33.83,0,*62
1487084406.75,35080,13.44,74596.8,-0.95,-33.61,-33.67,0,*64
1487084407.98,35081,13.44,74592.0,-0.95,-33.61,-33.67,0,*65
1487084409.21,35082,13.44,74592.8,-0.93,-33.67,-33.67,0,*66
1487084410.48,35083,13.44,74590.8,-0.93,-33.43,-33.49,0,*6D
1487084411.71,35084,13.44,74590.3,-0.93,-33.67,-33.67,0,*60
1487084412.97,35085,13.44,74588.8,-0.93,-33.49,-33.67,0,*6D
1487084414.24,35086,13.44,74588.8,-0.93,-33.43,-33.61,0,*62
1487084415.49,35087,13.44,74584.3,-0.93,-33.61,-33.67,0,*65
1487084416.73,35088,13.44,74584.8,-0.95,-33.61,-33.61,0,*6A
1487084417.98,35089,13.44,74592.8,-0.93,-33.61,-33.67,0,*6B
1487084419.2,35090,13.44,74592.3,-0.93,-33.83,-33.83,0,*65
1487084420.48,35091,13.44,74588.8,-0.93,-34.19,-34.31,0,*6E
1487084421.68,35092,13.44,74590.5,-0.95,-34.13,-34.13,0,*61
1487084422.88,35093,13.44,74590.0,-0.95,-34.13,-34.13,0,*60
1487084424.13,35094,13.44,74590.0,-0.93,-34.01,-34.13,0,*62
1487084425.36,35095,13.44,74592.5,-0.95,-34.13,-34.19,0,*6C
1487084426.58,35096,13.44,74588.3,-0.95,-34.13,-34.19,0,*6F
1487084427.8,35097,13.44,74582.5,-0.97,-34.25,-34.25,0,*66
1487084429.04,35098,13.44,74588.0,-0.95,-34.19,-34.19,0,*6B
1487084430.24,35099,13.44,74584.8,-0.99,-34.41,-34.41,0,*66
1487084431.5,35100,13.44,74590.3,-0.99,-34.65,-34.65,0,*67
1487084432.72,35101,13.44,74594.8,-0.97,-34.41,-34.41,0,*68
1487084433.93,35102,13.44,74594.5,-0.99,-34.07,-34.13,0,*60
1487084435.16,35103,13.44,74592.3,-0.97,-34.07,-34.07,0,*6A
1487084436.38,35104,13.44,74588.8,-0.97,-34.07,-34.25,0,*6D
1487084437.65,35105,13.44,74592.8,-1.01,-34.47,-34.53,0,*57
1487084438.88,35106,13.44,74588.0,-1.01,-34.41,-34.47,0,*57
1487084440.11,35107,13.44,74586.0,-1.01,-34.41,-34.41,0,*50
1487084441.35,35108,13.44,74590.0,-1.01,-34.07,-34.13,0,*5A
1487084442.57,35109,13.44,74590.0,-1.01,-34.25,-34.25,0,*5E
1487084443.82,35110,13.44,74592.5,-1.03,-34.31,-34.35,0,*50
1487084445.06,35111,13.44,74588.5,-1.01,-34.07,-34.07,0,*57
1487084446.27,35112,13.44,74584.8,-1.03,-33.95,-34.13,0,*5F
1487084447.55,35113,13.44,74588.0,-1.01,-33.89,-33.89,0,*55
1487084448.75,35114,13.44,74592.8,-1.03,-33.83,-33.95,0,*57
1487084449.96,35115,13.44,74584.0,-1.03,-33.83,-33.95,0,*56
1487084451.25,35116,13.44,74586.8,-1.01,-33.73,-33.89,0,*55
1487084452.46,35117,13.44,74586.0,-1.03,-33.67,-33.83,0,*59
1487084453.69,35118,13.44,74584.8,-1.03,-33.67,-33.77,0,*5D
1487084454.95,35119,13.44,74580.8,-1.01,-33.67,-33.77,0,*5E
1487084456.16,35120,13.44,74576.3,-1.03,-33.83,-33.95,0,*50
1487084457.39,35121,13.44,74594.0,-1.03,-33.95,-34.01,0,*5C
1487084458.67,35122,13.44,74586.0,-1.01,-33.61,-33.61,0,*57
1487084459.9,35123,13.44,74586.5,-1.03,-33.67,-33.77,0,*55
1487084461.11,35124,13.44,74582.5,-1.03,-33.67,-33.83,0,*59
1487084462.37,35125,13.44,74578.0,-1.03,-33.77,-33.77,0,*52
1487084463.62,35126,13.44,74580.8,-1.01,-33.61,-33.55,0,*54
1487084464.87,35127,13.44,74584.0,-1.03,-33.61,-33.77,0,*57
1487084466.08,35128,13.44,74586.3,-1.03,-33.67,-33.83,0,*55
1487084467.31,35129,13.44,74586.0,-1.03,-33.61,-33.67,0,*58
1487084468.57,35130,13.44,74592.0,-1.01,-33.55,-33.73,0,*50
1487084469.8,35131,13.44,74584.5,-1.01,-33.55,-33.55,0,*55
1487084471.03,35132,13.44,74586.0,-1.01,-33.55,-33.55,0,*56
1487084472.27,35133,13.44,74588.0,-1.01,-33.37,-33.37,0,*57
1487084473.53,35134,13.44,74586.5,-1.03,-33.49,-33.61,0,*58
1487084474.76,35135,13.44,74582.3,-1.03,-33.67,-33.77,0,*52
1487084476.0,35136,13.44,74582.3,-1.03,-33.67,-33.77,0,*51
1487084477.2,35137,13.44,74586.8,-1.03,-33.67,-33.83,0,*5B
1487084478.49,35138,13.44,74584.3,-1.01,-33.73,-33.89,0,*59
1487084479.72,35139,13.44,74590.0,-1.03,-33.61,-33.67,0,*59
1487084480.95,35140,13.44,74588.8,-1.01,-33.55,-33.55,0,*53
1487084482.22,35141,13.44,74588.5,-1.03,-33.31,-33.43,0,*55
1487084483.5,35142,13.44,74584.8,-1.01,-33.43,-33.43,0,*51
1487084484.76,35143,13.44,74584.5,-1.01,-33.43,-33.55,0,*57
1487084486.02,35144,13.44,74588.5,-1.03,-33.49,-33.61,0,*5F
1487084487.28,35145,13.44,74588.3,-1.03,-33.49,-33.49,0,*54
1487084488.57,35146,13.44,74586.0,-1.01,-33.43,-33.43,0,*55
1487084489.83,35147,13.44,74590.3,-1.01,-33.43,-33.37,0,*57
1487084491.09,35148,13.44,74580.0,-1.03,-33.43,-33.43,0,*59
1487084492.33,35149,13.44,74580.5,-1.01,-33.37,-33.37,0,*5A
1487084493.6,35150,13.44,74582.3,-1.01,-33.37,-33.43,0,*51
1487084494.87,35151,13.44,74582.5,-1.01,-33.37,-33.43,0,*50
1487084496.15,35152,13.44,74578.5,-1.01,-33.27,-33.27,0,*50
1487084497.36,35153,13.44,74576.0,-0.99,-33.37,-33.37,0,*61
1487084498.58,35154,13.44,74578.5,-0.99,-33.55,-33.61,0,*61
1487084499.84,35155,13.44,74578.0,-0.99,-33.43,-33.43,0,*67
1487084501.07,35156,13.44,74576.0,-0.99,-33.43,-33.55,0,*63
1487084502.3,35157,13.44,74580.0,-0.99,-33.37,-33.43,0,*66
1487084503.58,35158,13.44,74590.3,-1.01,-33.61,-33.61,0,*5A
1487084504.86,35159,13.44,74580.0,-1.01,-33.77,-33.77,0,*5B
1487084506.08,35160,13.44,74580.0,-0.99,-33.55,-33.61,0,*66
1487084507.29,35161,13.44,74586.8,-0.99,-33.37,-33.37,0,*60
1487084508.57,35162,13.44,74580.5,-1.01,-33.43,-33.61,0,*53
1487084509.81,35163,13.44,74582.3,-0.99,-33.61,-33.61,0,*62
1487084511.04,35164,13.44,74580.3,-0.99,-33.43,-33.55,0,*62
1487084512.24,35165,13.44,74580.5,-0.99,-33.37,-33.55,0,*60
1487084513.45,35166,13.44,74578.8,-0.99,-33.37,-33.55,0,*63
1487084514.7,35167,13.44,74578.3,-0.99,-33.27,-33.27,0,*66
1487084515.91,35168,13.44,74568.3,-0.99,-33.37,-33.37,0,*69
1487084517.16,35169,13.44,74586.0,-0.99,-33.43,-33.61,0,*68
1487084518.38,35170,13.44,74580.5,-0.99,-33.55,-33.61,0,*67
1487084519.61,35171,13.44,74582.3,-0.97,-33.37,-33.55,0,*6B
1487084520.86,35172,13.44,74588.0,-0.97,-33.49,-33.55,0,*61
1487084522.12,35173,13.44,74580.5,-0.99,-33.43,-33.43,0,*63
1487084523.34,35174,13.44,74580.5,-0.99,-33.55,-33.61,0,*63
1487084524.56,35175,13.44,74572.5,-0.97,-33.55,-33.55,0,*6B
1487084525.85,35176,13.44,74578.3,-1.01,-33.43,-33.43,0,*56
1487084527.14,35177,13.44,74580.0,-1.01,-33.27,-33.43,0,*55
1487084528.39,35178,13.44,74578.3,-0.99,-33.43,-33.43,0,*68
1487084529.65,35179,13.44,74586.8,-0.97,-33.21,-33.31,0,*66
1487084530.86,35180,13.44,74580.5,-0.99,-33.37,-33.37,0,*6F
1487084532.1,35181,13.44,74590.0,-0.99,-33.43,-33.61,0,*6E
1487084533.32,35182,13.44,74592.0,-0.99,-33.55,-33.61,0,*6A
1487084534.58,35183,13.44,74584.5,-0.99,-33.27,-33.43,0,*6E
1487084535.82,35184,13.44,74582.8,-0.99,-33.37,-33.43,0,*68
1487084537.05,35185,13.44,74576.8,-0.99,-33.21,-33.27,0,*6C
1487084538.3,35186,13.44,74576.3,-0.97,-33.31,-33.37,0,*61
1487084539.56,35187,13.44,74574.5,-0.97,-33.31,-33.21,0,*67
1487084540.78,35188,13.44,74576.8,-0.99,-33.49,-33.55,0,*6A
1487084542.01,35189,13.44,74580.5,-0.99,-33.43,-33.55,0,*61
1487084543.29,35190,13.44,74582.0,-0.97,-33.31,-33.31,0,*60
1487084544.52,35191,13.44,74586.5,-0.99,-33.43,-33.37,0,*6C
1487084545.74,35192,13.44,74580.8,-0.97,-33.55,-33.67,0,*63
1487084547.0,35193,13.44,74580.8,-0.99,-33.73,-33.77,0,*69
1487084548.21,35194,13.5,74584.0,-0.99,-33.37,-33.37,0,*6A
1487084549.46,35195,13.44,74578.8,-0.99,-33.61,-33.61,0,*6B
1487084550.71,35196,13.44,74584.8,-0.97,-33.49,-33.55,0,*6B
1487084551.96,35197,13.44,74586.3,-0.97,-33.55,-33.73,0,*63
1487084553.2,35198,13.44,74584.0,-0.99,-33.61,-33.61,0,*66
1487084554.43,35199,13.44,74584.0,-0.97,-33.67,-33.83,0,*63
1487084555.67,35200,13.44,74576.8,-0.99,-33.61,-33.73,0,*67
1487084556.93,35201,13.44,74582.5,-0.99,-33.43,-33.43,0,*65
1487084558.16,35202,13.44,74580.8,-0.97,-33.37,-33.37,0,*68
1487084559.42,35203,13.44,74584.0,-0.99,-33.77,-33.77,0,*67
1487084560.62,35204,13.44,74584.5,-0.99,-34.07,-34.13,0,*65
1487084561.83,35205,13.44,74580.8,-0.99,-34.07,-34.07,0,*61
1487084563.03,35206,13.44,74576.0,-0.99,-33.95,-34.07,0,*6E
1487084564.28,35207,13.44,74578.5,-0.99,-33.73,-33.73,0,*63
1487084565.48,35208,13.44,74580.5,-0.99,-33.55,-33.55,0,*6C
1487084566.71,35209,13.44,74584.3,-0.99,-33.73,-33.95,0,*65
1487084567.96,35210,13.44,74586.0,-0.99,-33.61,-33.77,0,*62
1487084569.21,35211,13.44,74576.0,-0.99,-33.61,-33.73,0,*67
1487084570.46,35212,13.44,74560.8,-0.99,-33.61,-33.61,0,*67
1487084571.7,35213,13.44,74578.5,-0.99,-33.43,-33.61,0,*66
1487084572.92,35214,13.5,74584.3,-0.99,-33.55,-33.61,0,*66
1487084574.14,35215,13.44,74584.5,-0.99,-33.55,-33.61,0,*67
1487084575.37,35216,13.44,74580.3,-0.99,-33.55,-33.61,0,*64
1487084576.61,35217,13.5,74590.3,-0.99,-33.61,-33.61,0,*62
1487084577.86,35218,13.44,74590.8,-0.99,-33.61,-33.73,0,*6E
1487084579.11,35219,13.44,74584.5,-0.99,-33.61,-33.77,0,*6B
1487084580.34,35220,13.44,74590.0,-0.97,-33.67,-33.67,0,*68
1487084581.56,35221,13.44,74590.0,-0.97,-33.83,-34.07,0,*62
1487084582.81,35222,13.44,74580.3,-0.99,-33.77,-33.89,0,*65
1487084584.07,35223,13.44,74584.5,-0.99,-33.73,-33.77,0,*61
1487084585.33,35224,13.5,74586.0,-0.99,-33.73,-33.89,0,*67
1487084586.58,35225,13.44,74584.3,-0.99,-33.61,-33.77,0,*64
1487084587.83,35226,13.44,74588.3,-0.99,-33.61,-33.73,0,*63
1487084589.08,35227,13.44,74588.0,-0.99,-33.61,-33.73,0,*62
1487084590.32,35228,13.44,74596.5,-0.99,-33.61,-33.73,0,*6D
1487084591.58,35229,13.44,74606.3,-0.97,-33.49,-33.55,0,*6C
1487084592.83,35230,13.44,74598.8,-0.99,-33.77,-33.89,0,*66
1487084594.08,35231,13.44,74594.8,-0.99,-33.89,-33.89,0,*66
1487084595.33,35232,13.44,74586.8,-0.99,-33.49,-33.61,0,*6F
1487084596.58,35233,13.44,74582.8,-0.97,-33.67,-33.73,0,*6F
1487084597.84,35234,13.44,74580.5,-0.99,-33.73,-33.77,0,*67
1487084599.08,35235,13.44,74578.0,-0.99,-33.61,-33.61,0,*62
1487084600.33,35236,13.44,74580.0,-0.99,-33.61,-33.73,0,*62
1487084601.58,35237,13.44,74576.3,-0.97,-33.55,-33.73,0,*6A
1487084602.8,35238,13.44,74588.0,-0.99,-33.77,-33.95,0,*63
1487084604.03,35239,13.44,74590.5,-0.99,-33.95,-34.01,0,*64
1487084605.23,35240,13.5,74588.0,-0.99,-34.13,-34.25,0,*65
1487084606.43,35241,13.5,74596.8,-0.99,-34.07,-34.25,0,*61
1487084607.63,35242,13.44,74594.5,-0.99,-34.13,-34.13,0,*62
1487084608.9,35243,13.5,74600.8,-0.99,-34.65,-34.65,0,*63
1487084610.15,35244,13.5,74608.8,-0.99,-34.65,-34.83,0,*6C
1487084611.41,35245,13.5,74604.8,-0.99,-34.53,-34.53,0,*65
1487084612.62,35246,13.44,74596.3,-1.03,-34.71,-34.59,0,*5E
1487084613.87,35247,13.44,74594.3,-1.01,-34.47,-34.47,0,*57
1487084615.11,35248,13.44,74594.5,-1.01,-34.07,-34.07,0,*58
1487084616.34,35249,13.44,74588.0,-1.03,-33.83,-34.01,0,*56
1487084617.58,35250,13.44,74590.3,-1.03,-33.95,-34.01,0,*59
1487084618.84,35251,13.44,74584.5,-1.03,-33.89,-34.01,0,*55
1487084620.04,35252,13.44,74578.8,-1.03,-33.95,-33.95,0,*51
1487084621.3,35253,13.5,74582.8,-1.03,-34.01,-34.01,0,*50
1487084622.53,35254,13.5,74590.0,-1.03,-34.13,-34.19,0,*5D
1487084623.81,35255,13.44,74592.8,-1.05,-34.19,-34.19,0,*50
1487084625.09,35256,13.5,74596.3,-1.05,-34.35,-34.35,0,*53
1487084626.37,35257,13.5,74596.0,-1.05,-34.53,-34.53,0,*52
1487084627.65,35258,13.44,74590.5,-1.07,-34.65,-34.65,0,*5F
1487084628.91,35259,13.44,74584.5,-1.05,-34.35,-34.47,0,*59
1487084630.14,35260,13.5,74590.0,-1.07,-34.25,-34.35,0,*55
1487084631.39,35261,13.5,74590.5,-1.07,-34.01,-34.19,0,*5C
1487084632.6,35262,13.44,74586.0,-1.07,-34.07,-34.25,0,*56
1487084633.86,35263,13.44,74578.3,-1.05,-34.01,-33.95,0,*5F
1487084635.07,35264,13.44,74572.0,-1.07,-33.83,-33.83,0,*50
1487084636.28,35265,13.44,74572.3,-1.07,-33.67,-33.83,0,*5B
1487084637.55,35266,13.5,74576.8,-1.05,-33.61,-33.61,0,*50
1487084638.78,35267,13.5,74574.8,-1.05,-33.95,-33.95,0,*51
1487084640.03,35268,13.5,74578.3,-1.05,-33.77,-33.95,0,*52
1487084641.32,35269,13.5,74572.8,-1.05,-33.77,-33.77,0,*5F
1487084642.6,35270,13.5,74574.3,-1.05,-33.77,-33.77,0,*57
1487084643.85,35271,13.44,74578.0,-1.05,-34.13,-34.19,0,*5C
1487084645.08,35272,13.44,74576.3,-1.07,-34.19,-34.25,0,*58
1487084646.31,35273,13.5,74576.5,-1.07,-33.89,-34.07,0,*57
1487084647.57,35274,13.44,74582.5,-1.07,-33.89,-33.89,0,*51
1487084648.8,35275,13.44,74582.3,-1.07,-34.01,-34.25,0,*56
1487084650.04,35276,13.5,74586.0,-1.07,-33.83,-34.01,0,*5E
1487084651.3,35277,13.44,74582.8,-1.05,-33.77,-33.67,0,*51
1487084652.51,35278,13.5,74590.5,-1.11,-33.83,-33.67,0,*50
1487084653.78,35279,13.44,74592.3,-1.07,-33.73,-33.73,0,*5C
1487084655.04,35280,13.44,74594.0,-1.07,-34.01,-33.89,0,*5D
1487084656.27,35281,13.5,74594.3,-1.07,-33.89,-33.83,0,*51
1487084657.54,35282,13.5,74592.5,-1.07,-33.73,-33.73,0,*58
1487084658.75,35283,13.5,74594.8,-1.07,-33.83,-33.83,0,*59
1487084659.99,35284,13.44,74588.0,-1.07,-33.67,-33.49,0,*52
1487084661.27,35285,13.5,74584.8,-1.13,-33.89,-33.89,0,*5A
1487084662.5,35286,13.44,74580.8,-1.11,-33.89,-33.83,0,*51
1487084663.73,35287,13.5,74582.0,-1.07,-33.89,-33.83,0,*57
1487084665.0,35288,13.5,74584.5,-1.07,-33.73,-33.73,0,*52
1487084666.23,35289,13.44,74590.5,-1.11,-33.73,-33.83,0,*5B
1487084667.49,35290,13.5,74598.3,-1.07,-33.89,-34.01,0,*5C
1487084668.76,35291,13.5,74598.0,-1.07,-33.73,-33.89,0,*5F
1487084669.97,35292,13.5,74596.0,-1.07,-33.83,-33.83,0,*59
1487084671.18,35293,13.5,74588.8,-1.11,-33.83,-33.83,0,*5F
1487084672.39,35294,13.5,74590.0,-1.11,-33.83,-33.83,0,*58
1487084673.59,35295,13.5,74584.5,-1.11,-33.83,-33.83,0,*59
1487084674.83,35296,13.5,74580.3,-1.11,-33.83,-33.89,0,*50
1487084676.09,35297,13.5,74572.0,-1.11,-34.01,-34.01,0,*5B
1487084677.33,35298,13.44,74570.5,-1.11,-33.83,-34.01,0,*59
1487084678.57,35299,13.5,74574.0,-1.11,-33.83,-33.89,0,*5F
1487084679.82,35300,13.5,74574.0,-1.11,-33.89,-34.01,0,*53
1487084681.06,35301,13.5,74584.0,-1.11,-33.83,-33.89,0,*5F
1487084682.28,35302,13.5,74580.3,-1.11,-34.25,-34.35,0,*57
1487084683.52,35303,13.5,74582.3,-1.13,-34.07,-34.13,0,*50
1487084684.76,35304,13.5,74576.3,-1.11,-34.01,-34.07,0,*56
1487084685.99,35305,13.5,74562.3,-1.11,-33.89,-34.07,0,*50
1487084687.24,35306,13.5,74570.5,-1.11,-33.89,-34.01,0,*55
1487084688.48,35307,13.5,74574.8,-1.11,-33.73,-33.83,0,*5C
1487084689.77,35308,13.5,74580.5,-1.13,-33.73,-33.73,0,*5E
1487084691.04,35309,13.5,74590.3,-1.11,-34.01,-34.01,0,*5D
1487084692.24,35310,13.5,74594.5,-1.11,-34.13,-34.25,0,*50
1487084693.49,35311,13.5,74590.5,-1.13,-34.47,-34.47,0,*56
1487084694.71,35312,13.5,74594.5,-1.11,-34.35,-34.41,0,*54
1487084695.93,35313,13.5,74592.0,-1.11,-34.47,-34.47,0,*56
1487084697.18,35314,13.5,74594.8,-1.11,-34.19,-34.35,0,*5F
1487084698.44,35315,13.5,74588.0,-1.13,-34.13,-34.31,0,*52
1487084699.7,35316,13.5,74584.0,-1.13,-34.31,-34.41,0,*56
1487084700.92,35317,13.5,74584.8,-1.13,-33.95,-34.25,0,*5C
1487084702.2,35318,13.5,74586.0,-1.13,-33.89,-33.89,0,*5F
1487084703.43,35319,13.5,74588.8,-1.15,-33.89,-33.95,0,*55
1487084704.69,35320,13.5,74590.0,-1.15,-33.77,-33.89,0,*53
1487084705.96,35321,13.5,74586.0,-1.15,-33.73,-33.77,0,*57
1487084707.17,35322,13.5,74586.0,-1.11,-34.13,-34.25,0,*51
1487084708.4,35323,13.5,74584.5,-1.13,-34.07,-34.25,0,*57
1487084709.65,35324,13.5,74580.5,-1.13,-33.77,-33.95,0,*5C
1487084710.91,35325,13.5,74582.8,-1.13,-33.77,-33.95,0,*5D
1487084712.2,35326,13.5,74582.3,-1.13,-33.77,-33.77,0,*52
1487084713.49,35327,13.5,74572.5,-1.13,-33.73,-33.77,0,*57
1487084714.78,35328,13.5,74578.3,-1.13,-33.73,-33.73,0,*5C
1487084716.07,35329,13.5,74578.0,-1.13,-33.73,-33.77,0,*59
1487084717.36,35330,13.5,74576.3,-1.13,-33.73,-33.89,0,*50
1487084718.65,35331,13.5,74576.3,-1.13,-33.73,-33.77,0,*50
1487084719.9,35332,13.5,74570.8,-1.13,-33.61,-33.55,0,*50
1487084721.19,35333,13.5,74576.0,-1.13,-33.73,-33.77,0,*52
1487084722.48,35334,13.5,74586.5,-1.13,-33.77,-33.89,0,*50
1487084723.77,35335,13.5,74576.3,-1.13,-33.73,-33.77,0,*54
1487084725.05,35336,13.5,74580.8,-1.13,-33.61,-33.73,0,*50
1487084726.28,35337,13.5,74576.5,-1.11,-33.37,-33.49,0,*59
1487084727.49,35338,13.5,74572.3,-1.11,-33.55,-33.55,0,*5F
1487084728.72,35339,13.5,74576.8,-1.11,-33.55,-33.49,0,*53
1487084729.98,35340,13.5,74574.0,-1.11,-33.49,-33.49,0,*50
1487084731.19,35341,13.5,74576.0,-1.11,-33.67,-33.67,0,*51
1487084732.46,35342,13.5,74582.0,-1.13,-33.73,-33.83,0,*5F
1487084733.71,35343,13.5,74580.5,-1.13,-33.89,-33.95,0,*5C
1487084734.97,35344,13.5,74574.5,-1.11,-33.89,-33.89,0,*54
1487084736.2,35345,13.5,74574.8,-1.11,-33.83,-34.01,0,*58
1487084737.44,35346,13.5,74582.3,-1.11,-33.83,-34.01,0,*5B
1487084738.73,35347,13.5,74582.3,-1.13,-33.77,-33.77,0,*55
1487084739.98,35348,13.5,74580.5,-1.13,-33.89,-33.95,0,*57
1487084741.23,35349,13.5,74584.8,-1.13,-33.89,-34.07,0,*5A
1487084742.49,35350,13.5,74590.5,-1.13,-33.89,-34.07,0,*52
1487084743.77,35351,13.5,74588.0,-1.13,-33.89,-33.89,0,*52
1487084745.03,35352,13.5,74584.8,-1.13,-33.61,-33.67,0,*57
1487084746.29,35353,13.5,74582.0,-1.13,-33.43,-33.37,0,*53
1487084747.55,35354,13.5,74584.8,-1.13,-33.49,-33.55,0,*5A
1487084748.76,35355,13.5,74580.8,-1.11,-33.55,-33.67,0,*55
1487084750.0,35356,13.5,74586.3,-1.11,-33.67,-33.73,0,*52
1487084751.25,35357,13.5,74584.3,-1.13,-33.55,-33.61,0,*53
1487084752.53,35358,13.5,74584.8,-1.13,-33.61,-33.61,0,*5B
1487084753.76,35359,13.5,74586.3,-1.11,-33.67,-33.73,0,*5D
1487084754.97,35360,13.5,74588.5,-1.11,-33.67,-33.67,0,*52
1487084756.19,35361,13.5,74584.5,-1.11,-33.37,-33.37,0,*53
1487084757.43,35362,13.5,74576.8,-1.11,-33.31,-33.37,0,*56
1487084758.69,35363,13.5,74578.8,-1.11,-33.49,-33.49,0,*51
1487084759.97,35364,13.5,74580.3,-1.13,-33.61,-33.73,0,*57
1487084761.17,35365,13.5,74578.3,-1.11,-33.55,-33.55,0,*57
1487084762.41,35366,13.5,74584.0,-1.11,-33.55,-33.73,0,*50
1487084763.61,35367,13.5,74586.3,-1.11,-33.67,-33.83,0,*5F
1487084764.85,35368,13.5,74578.3,-1.11,-33.49,-33.55,0,*57
1487084766.05,35369,13.5,74586.0,-1.11,-33.55,-33.55,0,*5B
1487084767.31,35370,13.5,74582.5,-1.11,-33.49,-33.49,0,*53
1487084768.57,35371,13.5,74584.3,-1.11,-33.31,-33.49,0,*5D
1487084769.81,35372,13.5,74582.8,-1.11,-33.49,-33.37,0,*58
1487084771.02,35373,13.5,74588.8,-1.11,-33.55,-33.55,0,*50
1487084772.25,35374,13.5,74584.8,-1.11,-33.49,-33.55,0,*5A
1487084773.49,35375,13.5,74588.5,-1.11,-33.49,-33.55,0,*5B
1487084774.76,35376,13.5,74592.8,-1.07,-33.73,-33.73,0,*52
1487084775.97,35377,13.5,74588.0,-1.07,-33.67,-33.83,0,*59
1487084777.18,35378,13.5,74590.0,-1.07,-33.67,-33.67,0,*5C
1487084778.42,35379,13.5,74588.0,-1.07,-33.67,-33.73,0,*58
1487084779.67,35380,13.5,74580.5,-1.05,-33.77,-33.83,0,*52
1487084780.88,35381,13.5,74588.0,-1.07,-33.55,-33.67,0,*5B
1487084782.09,35382,13.5,74592.8,-1.07,-33.55,-33.67,0,*58
1487084783.36,35383,13.5,74590.8,-1.07,-33.73,-33.73,0,*58
1487084784.6,35384,13.5,74592.3,-1.07,-33.67,-33.73,0,*5A
1487084785.81,35385,13.5,74580.0,-1.07,-33.55,-33.67,0,*5F
1487084787.05,35386,13.5,74584.8,-1.07,-33.49,-33.67,0,*51
1487084788.27,35387,13.5,74580.8,-1.07,-33.55,-33.67,0,*5D
1487084789.5,35388,13.5,74586.3,-1.07,-33.49,-33.55,0,*5E
1487084790.74,35389,13.5,74586.5,-1.07,-33.37,-33.49,0,*5B
1487084791.98,35390,13.5,74586.3,-1.07,-33.49,-33.37,0,*53
1487084793.19,35391,13.5,74588.3,-1.07,-33.55,-33.55,0,*5B
1487084794.43,35392,13.5,74586.5,-1.07,-33.37,-33.49,0,*51
1487084795.67,35393,13.5,74588.3,-1.07,-33.37,-33.49,0,*50
1487084796.95,35394,13.5,74594.0,-1.05,-33.43,-33.49,0,*56
1487084798.21,35395,13.5,74592.3,-1.07,-33.89,-33.89,0,*5F
1487084799.49,35396,13.5,74588.3,-1.05,-33.77,-33.77,0,*5E
1487084800.74,35397,13.5,74588.8,-1.07,-33.61,-33.61,0,*5D
1487084801.98,35398,13.5,74588.0,-1.07,-33.49,-33.55,0,*5F
1487084803.26,35399,13.5,74586.3,-1.05,-33.61,-33.77,0,*56
1487084804.54,35400,13.5,74592.3,-1.05,-33.49,-33.49,0,*56
1487084805.82,35401,13.5,74594.3,-1.05,-33.49,-33.61,0,*5D
1487084807.08,35402,13.5,74594.3,-1.11,-33.49,-33.31,0,*5E
1487084808.3,35403,13.5,74594.0,-1.07,-33.37,-33.37,0,*57
1487084809.58,35404,13.5,74596.5,-1.05,-33.43,-33.49,0,*58
1487084810.86,35405,13.5,74598.0,-1.05,-33.43,-33.49,0,*59
1487084812.15,35406,13.5,74590.8,-1.05,-33.43,-33.43,0,*50
1487084813.41,35407,13.5,74590.8,-1.05,-33.67,-33.77,0,*50
1487084814.65,35408,13.5,74588.8,-1.07,-33.67,-33.73,0,*59
1487084815.89,35409,13.5,74588.5,-1.07,-33.83,-34.01,0,*50
1487084817.14,35410,13.5,74596.0,-1.05,-33.77,-33.83,0,*5C
1487084818.4,35411,13.5,74592.8,-1.05,-33.77,-33.83,0,*5D
1487084819.65,35412,13.5,74594.8,-1.07,-34.01,-34.19,0,*5E
1487084820.91,35413,13.5,74600.3,-1.07,-34.01,-34.19,0,*5F
1487084822.15,35414,13.5,74600.5,-1.07,-33.83,-33.89,0,*5B
1487084823.39,35415,13.5,74598.8,-1.07,-33.73,-33.83,0,*5F
1487084824.65,35416,13.5,74600.5,-1.07,-33.73,-33.89,0,*56
1487084825.91,35417,13.5,74596.5,-1.05,-33.77,-33.83,0,*5B
1487084827.16,35418,13.5,74584.3,-1.05,-33.77,-33.83,0,*54
1487084828.42,35419,13.5,74584.5,-1.05,-33.67,-33.61,0,*58
1487084829.68,35420,13.5,74578.3,-1.07,-33.49,-33.49,0,*56
1487084830.95,35421,13.5,74572.0,-1.07,-33.49,-33.49,0,*57
1487084832.18,35422,13.5,74570.5,-1.07,-33.49,-33.55,0,*59
1487084833.39,35423,13.5,74552.0,-1.07,-33.55,-33.55,0,*55
1487084834.65,35424,13.5,74566.8,-1.05,-33.95,-34.01,0,*5A
1487084835.86,35425,13.5,74568.8,-1.07,-34.07,-34.07,0,*53
1487084837.09,35426,13.5,74574.3,-1.07,-33.89,-34.07,0,*51
1487084838.31,35427,13.5,74574.3,-1.07,-33.67,-33.67,0,*51
1487084839.52,35428,13.5,74572.3,-1.07,-33.67,-33.67,0,*5E
1487084840.74,35429,13.5,74564.3,-1.07,-33.67,-33.67,0,*5F
1487084841.98,35430,13.5,74564.8,-1.07,-33.73,-33.83,0,*58
1487084843.19,35431,13.5,74564.8,-1.07,-33.67,-33.67,0,*56
1487084844.43,35432,13.5,74574.8,-1.07,-33.67,-33.73,0,*50
1487084845.65,35433,13.5,74576.3,-1.07,-33.67,-33.67,0,*54
1487084846.85,35434,13.5,74582.0,-1.07,-33.55,-33.55,0,*53
1487084848.07,35435,13.5,74576.8,-1.07,-33.67,-33.55,0,*53
1487084849.33,35436,13.5,74588.8,-1.11,-33.49,-33.49,0,*56
1487084850.56,35437,13.5,74590.5,-1.11,-33.67,-33.73,0,*52
1487084851.8,35438,13.5,74596.0,-1.11,-33.49,-33.55,0,*55
1487084853.06,35439,13.5,74586.3,-1.11,-33.89,-34.01,0,*5E
1487084854.26,35440,13.5,74588.3,-1.11,-33.83,-33.83,0,*57
1487084855.52,35441,13.5,74584.3,-1.07,-33.89,-33.89,0,*51
1487084856.73,35442,13.5,74586.5,-1.11,-33.83,-33.83,0,*55
1487084858.01,35443,13.5,74578.8,-1.13,-33.77,-33.77,0,*56
1487084859.22,35444,13.5,74586.0,-1.11,-33.55,-33.67,0,*52
1487084860.43,35445,13.5,74574.8,-1.11,-33.67,-33.55,0,*53
1487084861.64,35446,13.5,74578.8,-1.11,-33.67,-33.67,0,*51
1487084862.85,35447,13.5,74582.3,-1.11,-33.55,-33.67,0,*51
1487084864.06,35448,13.5,74584.3,-1.11,-33.67,-33.55,0,*5E
1487084865.3,35449,13.5,74586.3,-1.11,-33.73,-33.55,0,*5A
1487084866.54,35450,13.5,74582.5,-1.11,-33.49,-33.37,0,*5F
1487084867.78,35451,13.5,74580.3,-1.11,-33.31,-33.37,0,*51
1487084869.02,35452,13.5,74580.3,-1.07,-33.49,-33.37,0,*5A
1487084870.22,35453,13.5,74584.0,-1.11,-33.55,-33.55,0,*55
1487084871.43,35454,13.5,74586.5,-1.11,-33.67,-33.67,0,*52
1487084872.7,35455,13.5,74582.5,-1.11,-33.73,-33.73,0,*53
1487084873.93,35456,13.5,74584.3,-1.11,-33.83,-33.73,0,*5F
1487084875.2,35457,13.5,74586.3,-1.11,-33.73,-33.73,0,*51
1487084876.41,35458,13.5,74592.8,-1.07,-33.55,-33.67,0,*58
1487084877.62,35459,13.5,74592.5,-1.07,-33.55,-33.67,0,*59
1487084878.86,35460,13.5,74594.5,-1.07,-33.73,-33.83,0,*5D
1487084880.1,35461,13.5,74594.8,-1.11,-33.67,-33.73,0,*51
1487084881.33,35462,13.5,74592.8,-1.11,-33.67,-33.73,0,*52
1487084882.54,35463,13.5,74586.0,-1.11,-33.67,-33.67,0,*56
1487084883.76,35464,13.5,74590.5,-1.11,-33.67,-33.67,0,*51
1487084884.96,35465,13.5,74588.0,-1.11,-33.55,-33.55,0,*50
1487084886.17,35466,13.5,74592.0,-1.11,-33.55,-33.55,0,*53
1487084887.4,35467,13.5,74598.3,-1.11,-33.83,-33.89,0,*58
1487084888.63,35468,13.5,74590.3,-1.11,-34.01,-34.07,0,*5B
1487084889.89,35469,13.5,74584.3,-1.11,-34.19,-34.19,0,*5C
1487084891.12,35470,13.5,74580.0,-1.11,-33.83,-33.89,0,*5E
1487084892.39,35471,13.5,74582.0,-1.11,-33.73,-33.73,0,*55
1487084893.63,35472,13.5,74580.5,-1.11,-33.73,-33.67,0,*53
1487084894.86,35473,13.5,74586.5,-1.11,-33.67,-33.73,0,*52
1487084896.1,35474,13.5,74586.5,-1.11,-33.83,-33.73,0,*5F
1487084897.34,35475,13.5,74578.5,-1.11,-33.73,-33.67,0,*54
1487084898.57,35476,13.5,74568.8,-1.13,-33.95,-33.95,0,*50
1487084899.81,35477,13.5,74554.0,-1.11,-33.73,-33.83,0,*5C
1487084901.04,35478,13.5,74568.5,-1.11,-33.73,-33.83,0,*53